Regional Weather Roundup
Issued by NWS Boston, MA

Current Version | Previous Version | Text Only | Print | Product List | Glossary Off
Versions: 1 2 3 4 5 6 7 8 9 10 11 12 13 14 15 16 17 18 19 20 21 22 23 24 25 26 27 28 29 30 31 32 33 34 35 36 37 38 39 40 41 42 43 44 45 46 47 48 49 50
000 ASUS41 KBOX 211310 RWRBOX REGIONAL WEATHER ROUNDUP NATIONAL WEATHER SERVICE BOSTON/NORTON MA 900 AM EDT SUN OCT 21 2018 NOTE: "FAIR" INDICATES FEW OR NO CLOUDS BELOW 12,000 FEET WITH NO SIGNIFICANT WEATHER AND/OR OBSTRUCTIONS TO VISIBILITY. MAZALL-211400- EASTERN MASSACHUSETTS CITY SKY/WX TMP DP RH WIND PRES REMARKS BOSTON NOT AVBL BEVERLY CLOUDY 43 34 70 N8 29.73R LAWRENCE CLOUDY 48 33 56 VRB7 29.76R BEDFORD CLOUDY 45 34 65 NW9 29.74R BLUE HILL N/A 40 37 89 N13G21 29.71R NORWOOD CLOUDY 46 39 76 N5 29.73R MARSHFIELD RAIN 45 41 87 VRB7G18 29.71R PLYMOUTH LGT RAIN 45 39 79 N17G25 29.71R TAUNTON RAIN 43 39 86 N8G17 29.73R FOG NEW BEDFORD LGT RAIN 43 41 93 NW8G23 29.71R $$ MAZALL-211400- CAPE COD AND THE ISLANDS CITY SKY/WX TMP DP RH WIND PRES REMARKS FALMOUTH RAIN 43 43 100 NW16G26 29.68R HYANNIS LGT RAIN 48 42 80 N18G33 29.64R CHATHAM RAIN 47 43 86 VRB7G20 29.65R FOG PROVINCETOWN LGT RAIN 46 41 82 N23G31 29.69R NANTUCKET LGT RAIN 50 47 89 N15 29.61R MARTHAS VNYRD RAIN 46 43 89 N20G36 29.66R FOG $$ MAZALL-211400- CENTRAL AND WESTERN MASSACHUSETTS CITY SKY/WX TMP DP RH WIND PRES REMARKS WORCESTER CLOUDY 40 33 76 NW12 29.73R FITCHBURG PTSUNNY 42 32 67 NW14 29.77R ORANGE PTSUNNY 43 28 55 N17G23 29.80R SPRINGFIELD CLOUDY 43 33 67 NW13 29.78R WESTFIELD PTSUNNY 43 30 60 N22G29 29.80R NORTH ADAMS CLOUDY 39 27 62 MISG 29.84R PITTSFIELD CLOUDY 36 27 69 NW10G28 29.82R WCI 28 $$ RIZALL-211400- RHODE ISLAND CITY SKY/WX TMP DP RH WIND PRES REMARKS PROVIDENCE LGT RAIN 43 39 86 N14G21 29.75R NEWPORT RAIN 43 41 93 N12G22 29.72R FOG BLOCK ISLAND LGT RAIN 45 45 100 N16G23 29.74R SMITHFIELD LGT RAIN 41 38 89 N7 29.74R WESTERLY CLOUDY 45 43 93 N9 29.75R $$ CTZALL-211400- CONNECTICUT CITY SKY/WX TMP DP RH WIND PRES REMARKS BRADLEY INTL PTSUNNY 45 29 53 NW21G26 29.79R HARTFORD CLOUDY 46 32 58 NW15G21 29.80R BRIDGEPORT CLOUDY 47 28 47 NW30G37 29.81R DANBURY FAIR 42 28 57 NW9G20 29.85R GROTON CLOUDY 45 41 86 NW12 29.76R NEW HAVEN PTSUNNY 48 31 51 NW16G24 29.80R CHESTER FAIR 45 41 87 NW10 29.77R MERIDEN CLOUDY 45 31 58 NW20G26 29.81R WILLIMANTIC CLOUDY 43 41 93 NW6 29.78R OXFORD PTSUNNY 40 28 62 NW20G26 29.81R WCI 30 $$ MEZ002-015-021-024-NHZ003-005-008-011-012-014-VTZ005-008-211400- NORTHERN NEW ENGLAND CITY SKY/WX TMP DP RH WIND PRES REMARKS PORTLAND ME CLOUDY 44 29 55 N9 29.73R BANGOR ME PTSUNNY 38 28 67 NW6 29.70R CONCORD NH CLOUDY 40 28 62 NW16G23 29.77R WCI 31 MANCHESTER NH CLOUDY 43 27 53 NW18G28 29.75R NASHUA NH CLOUDY 44 30 57 NW13G21 29.77R PORTSMOUTH NH CLOUDY 45 30 56 NW10 29.72 JAFFREY NH CLOUDY 40 29 64 NW9 29.77R KEENE NH CLOUDY 41 27 57 NW12G21 29.81R BURLINGTON VT CLOUDY 38 23 55 NW16G26 29.88R WCI 29 MT. WASHINGTON NOT AVBL $$ NYZ052-076-211400- EASTERN NEW YORK CITY SKY/WX TMP DP RH WIND PRES REMARKS ALBANY PTSUNNY 40 26 57 NW12G22 29.90R NEW YORK CITY PTSUNNY 48 32 53 NW23G35 29.87R $$ ANZALL-211400- MARINE OBSERVATIONS STATION/POSITION TIME TEMP WIND PRES VSBY WAVE AIR SEA DIR/SP/G HT/PER (UTC) (F) (DEG/KT/KT) (MB) (MI) (FT/S) BOSTON BUOY 1250 48 57 330/ 25/ 31 1005.0R 3/ 5 BUZZARDS BAY 1200 47 350/ 30/ 33 1003.3R NANTUCKET SOUND 1250 50 60 340/ 21/ 27 1003.3R 2/ 3 MASS BAY-STELLWA 1204 48 56 350/ 16/ 21 1003.8R 1 7/8 4/ 5 ISLE OF SHOALS 1200 47 340/ 11/ 12 1005.1R S OF BLOCK IS 1243 63 N/A 8/ 5 $$ ......................KEY......................... SKY/WX - SKY CONDITION/PRESENT WEATHER TMP - TEMPERATURE IN FAHRENHEIT DWPT - DEWPOINT IN FAHRENHEIT RH - RELATIVE HUMIDITY IN PERCENT WIND - DIRECTION AND SPEED IN MPH PRES - MEAN SEA LEVEL PRESSURE IN INCHES OF HG WCI - WIND CHILL INDEX VSB - VISIBILITY IN MILES HX - HEAT INDEX TC - TEMPERATURE IN CELSIUS VRB - VARIABLE WIND DIRECTION N/A - NOT AVAILABLE

USA.gov is the U.S. government's official web portal to all federal, state and local government web resources and services.